Jackpot

Texas Poker Multi Jackpot System

Kini Telah hadir Jackpot SUPER ROYAL FLUSH

Kini Telah hadir Jackpot 2000 (khusus table VIP keatas).

Ikutilah global jackpot yang tersedia di system kami, dengan system jackpot terbaru dan pertama di indonesia, anda dapat membeli jackpot dengan harga 100 rupiah saja dan menangkan hadiahnya hingga puluhan juta rupiah.

Jackpot bukanlah suatu keharusan untuk dibeli, namun kami memberikan suatu fitur tambahan untuk member tercinta dari www.kaptenpoker.net.

Terdapat tiga pilihan harga jackpot yang bisa anda beli yaitu :100,500,1000 dan 2000(khusus table VIP Keatas) rupiah.

Hadiah dari Multi jackpot system www.kaptenpoker.net

  1. full house x 10 harga jackpot yang anda beli.
      (contoh:anda membeli 1000 maka:1000 X10 = 10.000)
  2. four of kind x 250 harga jackpot yang anda beli
      (contoh:anda membeli 1000 maka:1000 X250 = 250.000)
  3. Straight flush x 1200
      (contoh:anda membeli 1000 maka:1000 X1200 = 1.200.000)
  4. Royal flush x 10000 harga jackpot yang anda beli
      (contoh:anda membeli 1000 maka:1000 X10000 = 10.000.000)
  5. SUPER ROYAL FLUSH x 30000 harga jackpot yang anda beli
      (contoh:anda membeli 1000 maka:1000 X30000 = 30.000.000)

Kondisi kartu

  1. full house adalah kondisi kartu dimana kartu anda dan kartu tengah dengan total 7 kartu bisa mendapatkan nilai 5 kartu dengan kombinasi 1 tris(three of kind) dan 1 pair, contoh 3 kartu 10 dan 2 kartu 5
  2. Four of kind adalah kondisi kartu dimana kartu anda dan kartu tengah dengan total 7 kartu bisa mendapatkan nilai 5 kartu dengan kombinasi 4 kartu yang sama jumlah dan 1 kartu apapun juga contoh anda mendapatkan 4 buah kartu angka 3 dan 1 kartu apapun.
  3. Staright flush adalah kondisi kartu dimana kartu anda dan kartu tengah dengan total 7 kartu bisa mendapatkan nilai 5 kartu dengan kombinasi seri / staright dengan kembang yang sama contoh : urutan kartu dari angka 5, 6, 7, 8 , 9 10 dengan kembang yg sama misalnya as hati
  4. Royal flush adalah kondisi kartu dimana kartu anda dan kartu tengah dengan total 7 kartu bisa mendapatkan nilai 5 kartu dengan kombinasi seri / staright dengan kembang yang sama tetapi kartu tersebut haruslah dimulai dari 10. contoh 10, Queen, Jack, King dan aces dengan kembang yang sama
  5. Super Royal flush adalah kondisi kartu dimana Kedua kartu anda digabung dengan 3 kartu pertama meja haruslah royal flush. contoh kartu anda 10,Queen kembang sama dan 3 kartu pertama meja adalah Jack, King dan aces dengan kembang yang sama

Demikian adalah penjelasan dari Multi Jackpot www.kaptenpoker.net terima kasih dan selamat bermain salam hoki dari kami

Texas Poker Jackpot Winner

TOP SUPER ROYAL FLUSH
No.TanggalNamaPriceWin
124/01 14:47MAOK88888Super Royal flush3,000,000
224/01 13:52KINGJUICEMSuper Royal flush30,000,000
324/01 13:35WARRIOR_GSuper Royal flush3,000,000
424/01 12:22KAISAR234Super Royal flush15,000,000
524/01 07:55THEWALKERSuper Royal flush3,000,000
TOP ROYAL FLUSH
No.TanggalNamaPriceWin
124/01 17:51MAKMUR92Royal flush1,000,000
224/01 17:40DEPA128Royal flush10,000,000
324/01 17:35MACOK5Royal flush10,000,000
424/01 17:31RENDIJRRoyal flush5,000,000
524/01 17:23SEND0K_00Royal flush1,000,000
TOP STRAIGHT FLUSH
No.TanggalNamaPriceWin
124/01 18:04RISBASAMDEStraight Flush1,200,000
224/01 18:02KIRIM_22Straight Flush120,000
324/01 18:00JUSAMI88Straight Flush1,200,000
424/01 17:54MV643163Straight Flush1,200,000
524/01 17:52MA5UAK999Straight Flush600,000
LATEST JACKPOT
No.TanggalNamaPriceWin
124/01 18:05INACONAKFull House5,000
224/01 18:05JALIK26Full House5,000
324/01 18:05RIZIEG88Full House1,000
424/01 18:05R0SHANFull House5,000
524/01 18:05SUT450MAFull House1,000
624/01 18:05YUME805Full House10,000
724/01 18:05KYPASPISFour Of A Kind250,000
824/01 18:05RAMPOK19Full House1,000
924/01 18:05TONCEDFull House10,000
1024/01 18:05UBA123Full House5,000
1124/01 18:05POTUI888Full House5,000
1224/01 18:05RISBASAMDEFull House10,000
1324/01 18:05MIEKAFGFOGFull House5,000
1424/01 18:05LOLO12345Full House5,000
1524/01 18:04PUSAKA121Full House5,000
1624/01 18:04LOCK123Full House10,000
1724/01 18:04AVV12Full House5,000
1824/01 18:04SELON97Full House5,000
1924/01 18:04ESPOK1Full House5,000
2024/01 18:04TAIMU_Full House1,000
2124/01 18:04KAAS33Full House5,000
2224/01 18:04HEDOSK2XXRFour Of A Kind25,000
2324/01 18:04BOS__WDFull House1,000
2424/01 18:04TATTO_13Full House1,000
2524/01 18:04J_A_H_EFull House1,000
2624/01 18:04JANGKRIKKSFull House5,000
2724/01 18:04BE11SUPERFull House1,000
2824/01 18:04GHORXJU72MFull House5,000
2924/01 18:04XEON07Full House1,000
3024/01 18:04NICO998Full House10,000
3124/01 18:04BE3NYFour Of A Kind25,000
3224/01 18:04MR_KARTUFull House5,000
3324/01 18:04G4G4L22Full House1,000
3424/01 18:04NATNATFull House10,000
3524/01 18:04KIMANTAPFull House10,000
3624/01 18:04HELMUTSFull House20,000
3724/01 18:04SPARTAN707Full House5,000
3824/01 18:04RUDIN87Full House1,000
3924/01 18:04SENDONGFull House1,000
4024/01 18:04WARZUQNI_1Full House10,000
4124/01 18:04URUBILALFull House1,000
4224/01 18:04BINGKISAN8Full House1,000
4324/01 18:04CANTIKBGTFull House1,000
4424/01 18:04RISBASAMDEStraight Flush1,200,000
4524/01 18:04IYAT55Full House5,000
4624/01 18:04WD1500888Full House5,000
4724/01 18:04COUNTRY98Full House5,000
4824/01 18:04JAICOFull House10,000
4924/01 18:04D41R1Full House10,000
5024/01 18:04ROYALS19Full House5,000

Domino Multi Jackpot System

Ikutilah global jackpot yang tersedia di system kami, dengan system jackpot terbaru dan pertama di indonesia, anda dapat membeli jackpot dengan harga 100 rupiah saja dan menangkan hadiahnya hingga puluhan juta rupiah.

Jackpot bukanlah suatu keharusan untuk dibeli, namun kami memberikan suatu fitur tambahan untuk member tercinta dari www.kaptenpoker.net.

Terdapat tiga pilihan harga jackpot yang bisa anda beli yaitu :100,500 dan 1000 rupiah.

Hadiah dari Multi jackpot system www.kaptenpoker.net

  1. Murni Kecil x 50 harga jackpot yang anda beli.
      (contoh:anda membeli 1000 maka:1000 X 50 = 50.000)
  2. Murni Besar x 50 harga jackpot yang anda beli
      (contoh:anda membeli 1000 maka:1000 X 50 = 50.000)
  3. BALAK x 100 harga jackpot yang anda beli
      (contoh:anda membeli 1000 maka:1000 X 100 = 100.000)
  4. ENAM DEWA x 6666 harga jackpot yang anda beli
      (contoh:anda membeli 1000 maka:1000 X 6666 = 6.666.000)

Demikian adalah penjelasan dari Multi Jackpot www.kaptenpoker.net terima kasih dan selamat bermain salam hoki dari kami

Domino Jackpot Winner

TOP ENAM DEWA
No.TanggalNamaPriceWin
124/01 15:05SAFANA00murni enam6,666,000
224/01 05:28SULTN99murni enam6,666,000
324/01 04:08KITTY995murni enam666,600
424/01 00:16TEMPEKTUOmurni enam3,333,000
523/01 23:59TM7ZINATMJmurni enam6,666,000
TOP BALAK
No.TanggalNamaPriceWin
124/01 18:05MRS84balak50,000
224/01 17:58OCUBET87balak50,000
324/01 17:57RYISXG8FY7balak10,000
424/01 17:46YOLAOLAbalak100,000
524/01 17:46SUMMER87balak10,000
LATEST JACKPOT
No.TanggalNamaPriceWin
124/01 18:05MRS84balak50,000
224/01 18:05ASAH73murni besar5,000
324/01 18:04TITA222murni besar50,000
424/01 18:04TOKAI19murni besar5,000
524/01 18:03KINK9090murni kecil25,000
624/01 18:03JHO81murni kecil50,000
724/01 18:03GOODRILmurni besar25,000
824/01 18:02POETRY07murni besar25,000
924/01 18:01QIUQIU123murni kecil5,000
1024/01 18:00PAPER18murni kecil50,000
1124/01 18:00YUDI423murni kecil50,000
1224/01 17:58OCUBET87balak50,000
1324/01 17:58SOHAHAUmurni besar50,000
1424/01 17:57T0L0R88murni besar50,000
1524/01 17:57RYISXG8FY7balak10,000
1624/01 17:56ASTEK99murni kecil5,000
1724/01 17:56GONGXY88murni besar25,000
1824/01 17:55MONBETmurni kecil25,000
1924/01 17:54AM4P4T1murni besar50,000
2024/01 17:53TOKMEKmurni besar5,000
2124/01 17:53ODOOmurni kecil5,000
2224/01 17:53BRATA55murni kecil50,000
2324/01 17:52ARDY1201murni besar50,000
2424/01 17:52TAHU_008murni kecil25,000
2524/01 17:52ROJER191murni besar25,000
2624/01 17:51NOZEL89murni kecil25,000
2724/01 17:50GOODRILmurni kecil25,000
2824/01 17:49LENI17murni besar25,000
2924/01 17:49JUGUL909murni kecil5,000
3024/01 17:49ROROO12murni kecil5,000
3124/01 17:49AR4Y22murni kecil25,000
3224/01 17:47CONK87murni kecil50,000
3324/01 17:47BANGBUDmurni kecil50,000
3424/01 17:47CI2001ASmurni besar25,000
3524/01 17:46YOLAOLAbalak100,000
3624/01 17:46SUMMER87balak10,000
3724/01 17:45W1NNERWPbalak10,000
3824/01 17:44DJ9ONbalak100,000
3924/01 17:43DEWE02murni besar50,000
4024/01 17:43TGMJAYAOKmurni kecil50,000
4124/01 17:42KIKINAYUmurni kecil5,000
4224/01 17:42CAGUT57murni kecil5,000
4324/01 17:42TORREESmurni besar50,000
4424/01 17:41RH03116balak50,000
4524/01 17:40HELMI123murni besar50,000
4624/01 17:39GEMBULmurni kecil50,000
4724/01 17:37ROBOT12345murni besar25,000
4824/01 17:37SMR476murni kecil50,000
4924/01 17:36OBIN08murni besar50,000
5024/01 17:35XMQX38J6SPmurni besar50,000

Ceme Multi Jackpot System

Jackpot dilihat dari gabungan kartu pemain dengan kartu bandar. Bandar harus membeli jackpot sebanyak jumlah player yang sedang duduk. Sebagai contoh bila terdapat 3 pemain duduk bermain, dan bandar memutuskan untuk membeli jackpot Rp 1.000, maka pada periode tersebut bandar akan membeli jackpot sebanyak 3xRp1.000 = Rp3.000.

Jackpot bukanlah suatu keharusan untuk dibeli, namun kami memberikan suatu fitur tambahan untuk member tercinta dari www.kaptenpoker.net.

Terdapat tiga pilihan harga jackpot yang bisa anda beli yaitu :100,500 dan 1000 rupiah.

Hadiah dari Multi jackpot system www.kaptenpoker.net

  1. Murni Kecil x 50 harga jackpot yang anda beli.
      (contoh:anda membeli 1000 maka:1000 X 50 = 50.000)
  2. Murni Besar x 50 harga jackpot yang anda beli
      (contoh:anda membeli 1000 maka:1000 X 50 = 50.000)
  3. BALAK x 200 harga jackpot yang anda beli
      (contoh:anda membeli 1000 maka:1000 X 200 = 200.000)
  4. ENAM DEWA x 6666 harga jackpot yang anda beli
      (contoh:anda membeli 1000 maka:1000 X 6666 = 6.666.000)

Demikian adalah penjelasan dari Multi Jackpot www.kaptenpoker.net terima kasih dan selamat bermain salam hoki dari kami

Ceme Jackpot Winner

TOP ENAM DEWA
No.TanggalNamaPriceWin
124/01 17:55ITZANGGmurni enam666,600
224/01 17:55LEMEN77murni enam666,600
324/01 17:25ZOVALICAmurni enam666,600
424/01 17:04UUD7murni enam6,666,000
524/01 16:46RIANABDULLmurni enam3,333,000
TOP BALAK
No.TanggalNamaPriceWin
124/01 18:0499TERUSbalak200,000
224/01 18:04SUS58balak20,000
324/01 18:03CUBBYbalak200,000
424/01 18:03ARILANGbalak20,000
524/01 18:02WITHA1011balak200,000
LATEST JACKPOT
No.TanggalNamaPriceWin
124/01 18:0499TERUSbalak200,000
224/01 18:04S_I_L_E_Tmurni kecil50,000
324/01 18:04SUS58balak20,000
424/01 18:04AJOTONJOmurni kecil5,000
524/01 18:03CUBBYbalak200,000
624/01 18:03ARILANGbalak20,000
724/01 18:03ALFREDMANmurni kecil5,000
824/01 18:03AJOTONJOmurni kecil5,000
924/01 18:03AYUTKINGmurni besar50,000
1024/01 18:03CYGNUS71murni kecil5,000
1124/01 18:03SAFAR188murni besar5,000
1224/01 18:03EKO16murni besar50,000
1324/01 18:03EB517E65murni besar5,000
1424/01 18:02MONYET2murni kecil50,000
1524/01 18:02WITHA1011balak200,000
1624/01 18:02ZAKIRA12murni kecil5,000
1724/01 18:02RAYNHARDbalak100,000
1824/01 18:02LONCOTbalak200,000
1924/01 18:02INDAHHOT1murni kecil50,000
2024/01 18:02ONDOL81murni kecil50,000
2124/01 18:02WN9EYCM1VPmurni kecil25,000
2224/01 18:02ABDL11murni kecil50,000
2324/01 18:02LINTOANKmurni kecil5,000
2424/01 18:01MANGAPSmurni besar50,000
2524/01 18:01SHANDY2011murni besar5,000
2624/01 18:01DEKULmurni kecil25,000
2724/01 18:01ALFREDMANmurni kecil5,000
2824/01 18:01MUPE80murni besar25,000
2924/01 18:01ALQISH05balak20,000
3024/01 18:01FUKYUNG85murni kecil25,000
3124/01 18:01MASHOKI9murni kecil5,000
3224/01 18:00BAJIGUmurni kecil25,000
3324/01 18:00UUD7murni besar50,000
3424/01 18:00BRAVORCmurni besar50,000
3524/01 18:00MONYET2murni kecil50,000
3624/01 18:00AMIRA021murni kecil25,000
3724/01 18:00DADUNG007murni kecil25,000
3824/01 17:59ARULXXXmurni kecil5,000
3924/01 17:59TAMPER20murni kecil5,000
4024/01 17:59HOREEEEE12murni kecil25,000
4124/01 17:59ROZIKUNAmurni kecil50,000
4224/01 17:59DADUNG007murni kecil25,000
4324/01 17:59TUROX69murni kecil50,000
4424/01 17:59RAYNHARDmurni kecil25,000
4524/01 17:58KI888HObalak100,000
4624/01 17:58BESSETbalak20,000
4724/01 17:58MY4Y4NGFmurni besar50,000
4824/01 17:58DJWV90murni kecil25,000
4924/01 17:58LUFIGAZZ93murni kecil5,000
5024/01 17:58ITZANGGbalak20,000